[[{"header":{"parameterUnit":"m.s-1","parameterCategory":1,"la1":30.2991,"la2":30.254,"lo1":-89.0895,"lo2":-89.0444,"dy":0.0017,"dx":0.0017,"nx":28,"ny":28,"refTime":"2024-10-05T21:00:00:Z","depth":0,"parameterNumber":2,"parameterNumberName":"U-component_of_WINDS"},"data":[0,0,0,0,0,0,0,0,0,0,0,0,0,0,0,0,0,0,0,0,0,0,0,0,0,0,0,0,0,0,0,0,0,0,0,0,0,0,0,0,0,0,0,0,0,0,0,0,0,0,0,0,0,0,0,0,0,0,-4.4582,-4.4584,0,-4.4699,-4.47,-4.4701,-4.4599,-4.4594,-4.459,-4.4586,-4.4708,-4.4715,-4.4722,0,0,0,0,0,0,0,0,0,0,0,0,0,-4.4274,-4.4281,-4.4582,-4.4584,-4.4585,-4.4698,-4.47,-4.4702,-4.4599,-4.4594,-4.4589,-4.4584,-4.4706,-4.4714,-4.4723,0,0,0,0,0,0,0,0,0,0,0,0,0,-4.4401,-4.4283,-4.4582,-4.4548,-4.4546,-4.4698,-4.47,-4.4702,-4.4601,-4.4594,-4.4588,-4.4582,-4.4703,-4.4713,-4.4724,-4.4917,0,0,-4.4757,-4.4761,0,0,0,0,0,0,0,0,-4.4394,-4.4413,-4.4551,-4.455,-4.4549,-4.4628,-4.4636,-4.4774,-4.4602,-4.458,-4.4586,-4.4579,-4.4687,-4.4698,-4.4734,-4.4922,-4.4927,-4.4758,-4.4764,-4.4769,-4.4772,0,0,0,0,0,0,0,-4.4386,-4.4407,-4.4628,-4.4554,-4.4552,-4.4527,-4.4539,-4.4662,-4.4667,-4.4581,-4.4574,-4.4589,-4.4685,-4.4724,-4.4736,-4.4929,-4.4757,-4.4767,-4.4774,-4.4778,-4.5283,-4.529,0,0,0,0,0,0,-4.438,-4.44,-4.4625,-4.4632,-4.4454,-4.4538,-4.455,-4.4609,-4.4666,-4.4668,-4.4594,-4.4584,-4.4709,-4.4724,-4.474,-4.4971,-4.4769,-4.4779,-4.4785,-4.5276,-4.5285,-4.5292,0,0,0,0,0,0,-4.4374,-4.4401,-4.462,-4.4514,-4.454,-4.455,-4.4616,-4.4614,-4.4653,-4.4676,-4.4676,-4.4634,-4.4704,-4.4725,-4.4874,-4.4973,-4.4784,-4.4793,-4.5268,-4.5279,-4.5288,-4.5433,0,0,0,0,0,0,-4.4365,-4.4399,-4.4472,-4.4517,-4.4546,-4.4751,-4.4622,-4.4621,-4.4672,-4.4659,-4.4712,-4.4715,-4.4701,-4.4858,-4.4884,-4.4985,-4.4802,-4.5259,-4.5273,-4.5285,-4.5419,-4.5447,-4.5471,0,0,0,0,0,-4.4355,-4.4508,-4.4476,-4.4504,-4.4637,-4.4757,-4.4774,-4.4754,-4.468,-4.4754,-4.4768,-4.4713,-4.4958,-4.4874,-4.4903,-4.5008,-4.5253,-4.5269,-4.5284,-4.5408,-4.5442,-4.547,0,0,0,0,0,0,-4.4476,-4.4514,-4.4478,-4.4651,-4.4702,-4.474,-4.4832,-4.479,-4.4864,-4.4849,-4.4821,-4.4834,-4.4991,-4.5014,-4.492,-4.5198,-4.5094,-4.5116,-4.5178,-4.521,-4.5235,-4.5228,-4.4811,0,0,0,0,0,-4.4523,-4.4616,-4.4644,-4.4794,-4.4821,-4.4823,-4.4874,-4.4854,-4.4905,-4.4927,-4.4952,-4.5005,-4.5093,-4.5153,-4.5235,-4.5421,-4.5433,-4.5508,-4.5534,-4.5555,-4.5575,-4.5677,-4.5711,-4.5344,-4.5344,-4.5343,0,0,-4.4621,-4.4653,-4.4713,-4.4819,-4.4856,-4.4954,-4.4841,-4.495,-4.5023,-4.4943,-4.5086,-4.5106,-4.5163,-4.5332,-4.5408,-4.5356,-4.5679,-4.5575,-4.5591,-4.56,-4.5697,-4.5731,-4.5762,-4.5354,-4.5352,-4.5351,0,0,-4.4849,-4.4882,-4.5011,-4.505,-4.5107,-4.5107,-4.5139,-4.5183,-4.5194,-4.5336,-4.5278,-4.5365,-4.5518,-4.5562,-4.5604,-4.585,-4.5803,-4.5878,-4.6013,-4.6113,-4.6142,-4.6168,-4.6257,-4.629,-4.5898,-4.5898,-4.5898,0,-4.4964,-4.5109,-4.5083,-4.5196,-4.5245,-4.5177,-4.5308,-4.5347,-4.5429,-4.5465,-4.5405,-4.5597,-4.563,-4.5809,-4.5869,-4.5905,-4.5941,-4.5873,-4.614,-4.6165,-4.6189,-4.6274,-4.6308,-4.5907,-4.5906,-4.5905,-4.5904,0,-4.5248,-4.535,-4.5448,-4.5528,-4.5587,-4.5709,-4.5702,-4.5766,-4.5741,-4.5747,-4.5894,-4.5932,-4.6022,-4.6062,-4.6039,-4.6239,-4.6205,-4.6143,-4.6038,-4.6233,-4.6313,-4.6345,-4.592,-4.5916,-4.5914,-4.5912,0,0,-4.5558,-4.5622,-4.5659,-4.5695,-4.5753,-4.5831,-4.595,-4.6038,-4.6094,-4.6152,-4.6253,-4.6384,-4.6327,-4.6375,-4.6356,-4.6443,-4.6638,-4.6371,-4.6372,-4.6421,-4.6863,-4.6911,-4.6949,-4.6606,-4.6612,-4.6617,-4.6859,0,-4.579,-4.5997,-4.5977,-4.6174,-4.6268,-4.6204,-4.6308,-4.6356,-4.6365,-4.6448,-4.6458,-4.6552,-4.6469,-4.6498,-4.6582,-4.6597,-4.6727,-4.6579,-4.6702,-4.6706,-4.6691,-4.699,-4.7041,-4.7267,-4.689,-4.6895,-4.6899,0,-4.609,-4.6159,-4.6365,-4.6409,-4.6448,-4.6542,-4.6621,-4.67,-4.6753,-4.6754,-4.6808,-4.6774,-4.6895,-4.6786,-4.6953,-4.6853,-4.6902,-4.6917,-4.6925,-4.6938,-4.6816,-4.7013,-4.7338,-4.7373,-4.6947,-4.6943,-4.694,0,-4.6297,-4.6442,-4.6584,-4.6617,-4.6672,-4.6739,-4.6766,-4.6812,-4.6866,-4.6935,-4.6971,-4.7053,-4.7099,-4.7164,-4.7154,-4.7075,-4.7326,-4.7215,-4.7332,-4.7332,-4.7389,-4.7386,-4.7729,-4.7417,-4.7417,-4.7416,-4.7416,0,-4.656,-4.6689,-4.6678,-4.6766,-4.6909,-4.6885,-4.7028,-4.7046,-4.7088,-4.7179,-4.7128,-4.7215,-4.7195,-4.7282,-4.7275,-4.7416,-4.7437,-4.7442,-4.7439,-4.7448,-4.7448,-4.7481,-4.7466,-4.7425,-4.7423,-4.7421,-4.742,0,-4.6817,-4.6815,-4.6966,-4.7005,-4.7018,-4.7123,-4.7157,-4.7241,-4.7245,-4.7361,-4.7387,-4.7396,-4.7495,-4.7491,-4.7604,-4.7599,-4.7773,-4.7751,-4.7756,-4.7752,-4.7869,-4.7859,-4.8248,-4.8298,-4.7952,-4.7955,-4.7958,0,-4.6986,-4.7084,-4.7134,-4.7191,-4.7222,-4.7315,-4.7369,-4.7349,-4.7409,-4.7477,-4.7553,-4.7648,-4.7722,-4.7885,-4.7902,-4.7988,-4.7969,-4.8099,-4.7982,-4.7988,-4.7974,-4.7969,-4.7979,-4.8123,-4.8127,-4.813,-4.8132,0,-4.7287,-4.7281,-4.7362,-4.7443,-4.751,-4.7573,-4.7631,-4.768,-4.7666,-4.7736,-4.7837,-4.7895,-4.801,-4.8106,-4.8189,-4.8216,-4.8174,-4.8169,-4.8201,-4.8212,-4.8212,-4.8216,-4.7821,-4.8161,-4.8158,-4.8156,-4.8154,-4.8153,-4.7506,-4.7591,-4.764,-4.7732,-4.7773,-4.7828,-4.7909,-4.7924,-4.8008,-4.81,-4.8082,-4.8196,-4.8248,-4.8354,-4.839,-4.848,-4.8434,-4.8479,-4.8491,-4.8504,-4.8518,-4.8196,-4.8494,-4.8494,-4.8493,-4.8492,-4.8492,0,-4.7806,-4.7835,-4.7919,-4.8002,-4.8075,-4.8026,-4.8087,-4.8152,-4.8253,-4.8304,-4.8378,-4.8495,-4.8587,-4.8612,-4.8701,-4.8768,-4.8751,-4.8793,-4.8788,-4.8796,-4.8553,-4.8517,-4.8805,-4.8805,-4.8805,-4.8805,-4.8805,-4.8805,-4.7971,-4.8112,-4.8112,-4.8274,-4.8301,-4.8412,-4.8451,-4.8502,-4.8543,-4.8676,-4.8752,-4.8766,-4.8808,-4.8899,-4.8983,-4.8987,-4.9024,-4.9074,-4.9071,-4.8844,-4.8813,-4.8783,-4.8749,-4.9081,-4.9082,-4.9307,-4.9309,-4.9311]},{"header":{"parameterUnit":"m.s-1","parameterCategory":1,"la1":30.2991,"la2":30.254,"lo1":-89.0895,"lo2":-89.0444,"dy":0.0017,"dx":0.0017,"nx":28,"ny":28,"refTime":"2024-10-05T21:00:00:Z","depth":0,"parameterNumber":3,"parameterNumberName":"V-component_of_WINDS"},"data":[0,0,0,0,0,0,0,0,0,0,0,0,0,0,0,0,0,0,0,0,0,0,0,0,0,0,0,0,0,0,0,0,0,0,0,0,0,0,0,0,0,0,0,0,0,0,0,0,0,0,0,0,0,0,0,0,0,0,-4.0428,-4.0428,0,-4.0451,-4.0451,-4.0451,-4.0378,-4.0375,-4.0373,-4.0371,-4.0393,-4.0395,-4.0398,0,0,0,0,0,0,0,0,0,0,0,0,0,-4.0318,-4.032,-4.0428,-4.0428,-4.0429,-4.0451,-4.0451,-4.0451,-4.0378,-4.0375,-4.0373,-4.037,-4.0392,-4.0395,-4.0398,0,0,0,0,0,0,0,0,0,0,0,0,0,-4.0356,-4.0321,-4.0428,-4.0395,-4.0392,-4.0451,-4.0451,-4.0452,-4.0379,-4.0375,-4.0372,-4.0369,-4.0391,-4.0395,-4.0399,-4.049,0,0,-4.0411,-4.0412,0,0,0,0,0,0,0,0,-4.0354,-4.036,-4.0399,-4.0397,-4.0394,-4.0408,-4.042,-4.0464,-4.0379,-4.0384,-4.0371,-4.0367,-4.04,-4.0403,-4.0415,-4.0491,-4.0492,-4.0411,-4.0414,-4.0415,-4.0416,0,0,0,0,0,0,0,-4.0351,-4.0358,-4.0437,-4.04,-4.0397,-4.0378,-4.0379,-4.0428,-4.041,-4.0383,-4.0378,-4.0382,-4.0398,-4.0411,-4.0415,-4.0492,-4.0411,-4.0415,-4.0417,-4.0419,-4.0643,-4.0646,0,0,0,0,0,0,-4.0353,-4.0357,-4.0436,-4.0438,-4.0365,-4.0382,-4.0384,-4.0407,-4.041,-4.0407,-4.0384,-4.0378,-4.0406,-4.041,-4.0415,-4.0522,-4.0415,-4.0419,-4.0421,-4.0639,-4.0644,-4.0648,0,0,0,0,0,0,-4.0351,-4.0361,-4.0435,-4.0396,-4.0404,-4.0388,-4.0414,-4.0409,-4.0422,-4.0411,-4.0407,-4.0401,-4.0404,-4.041,-4.0472,-4.0522,-4.0421,-4.0424,-4.0635,-4.0641,-4.0646,-4.0736,0,0,0,0,0,0,-4.0348,-4.0361,-4.0396,-4.0397,-4.0406,-4.0493,-4.0417,-4.0412,-4.0429,-4.0421,-4.0425,-4.0423,-4.0402,-4.0466,-4.0476,-4.0525,-4.0427,-4.0631,-4.0638,-4.0644,-4.0729,-4.0744,-4.0757,0,0,0,0,0,-4.0344,-4.0421,-4.0398,-4.0408,-4.045,-4.0496,-4.0501,-4.0475,-4.0434,-4.0469,-4.0461,-4.0423,-4.0515,-4.0473,-4.0483,-4.0535,-4.0627,-4.0636,-4.0644,-4.0722,-4.0741,-4.0757,0,0,0,0,0,0,-4.0425,-4.042,-4.0395,-4.0474,-4.0486,-4.0483,-4.0527,-4.0496,-4.0519,-4.0511,-4.0477,-4.0479,-4.0546,-4.0547,-4.0501,-4.0623,-4.0564,-4.0574,-4.062,-4.0638,-4.0652,-4.065,-4.0431,0,0,0,0,0,-4.0453,-4.0491,-4.0484,-4.0554,-4.0561,-4.0543,-4.0562,-4.0541,-4.0551,-4.0556,-4.0553,-4.0564,-4.0595,-4.0616,-4.0645,-4.0728,-4.0727,-4.0768,-4.0783,-4.0794,-4.0804,-4.0847,-4.0865,-4.0674,-4.0674,-4.0674,0,0,-4.0509,-4.0511,-4.0537,-4.057,-4.0577,-4.0616,-4.0548,-4.0592,-4.0621,-4.0562,-4.0621,-4.0619,-4.0629,-4.0702,-4.0734,-4.0704,-4.0856,-4.0804,-4.0814,-4.0817,-4.0857,-4.0875,-4.0891,-4.068,-4.0679,-4.0678,0,0,-4.0631,-4.0637,-4.0696,-4.0704,-4.0715,-4.0702,-4.0716,-4.0718,-4.0714,-4.0772,-4.0729,-4.0762,-4.0817,-4.0825,-4.0837,-4.0961,-4.0927,-4.0971,-4.1045,-4.1088,-4.1103,-4.1116,-4.116,-4.1176,-4.0981,-4.0981,-4.0981,0,-4.07,-4.0758,-4.0729,-4.0777,-4.0792,-4.0741,-4.08,-4.0809,-4.0828,-4.0839,-4.0806,-4.0873,-4.0876,-4.095,-4.098,-4.0991,-4.1006,-4.0971,-4.1103,-4.1116,-4.1128,-4.1169,-4.1186,-4.0986,-4.0986,-4.0985,-4.0985,0,-4.0841,-4.0882,-4.0928,-4.0948,-4.0969,-4.1021,-4.1,-4.1024,-4.1001,-4.0991,-4.105,-4.1052,-4.1079,-4.1095,-4.1073,-4.1166,-4.1147,-4.1109,-4.1049,-4.1152,-4.119,-4.1206,-4.0994,-4.0992,-4.099,-4.0989,0,0,-4.1016,-4.1019,-4.1037,-4.1045,-4.1052,-4.1083,-4.1133,-4.116,-4.118,-4.1195,-4.1235,-4.1282,-4.1247,-4.126,-4.1238,-4.1276,-4.1373,-4.1233,-4.1232,-4.1258,-4.1474,-4.1502,-4.1521,-4.135,-4.1353,-4.1355,-4.1473,0,-4.1136,-4.1222,-4.1197,-4.1283,-4.132,-4.1271,-4.1314,-4.1323,-4.1315,-4.1344,-4.1335,-4.1369,-4.132,-4.1327,-4.1362,-4.1354,-4.1416,-4.1345,-4.1386,-4.1388,-4.1385,-4.1541,-4.1572,-4.1683,-4.1488,-4.149,-4.1492,0,-4.1288,-4.1309,-4.1399,-4.1399,-4.1414,-4.1453,-4.1475,-4.1504,-4.1512,-4.1504,-4.1518,-4.1488,-4.1536,-4.1476,-4.154,-4.1493,-4.1508,-4.1506,-4.151,-4.1513,-4.1446,-4.1548,-4.1718,-4.1735,-4.1515,-4.1514,-4.1512,0,-4.1407,-4.1457,-4.1517,-4.1525,-4.1527,-4.1556,-4.1558,-4.1563,-4.158,-4.1599,-4.161,-4.1634,-4.1647,-4.1666,-4.1643,-4.1602,-4.1711,-4.1649,-4.1705,-4.1705,-4.173,-4.1729,-4.1905,-4.174,-4.174,-4.174,-4.174,0,-4.1543,-4.16,-4.1569,-4.1606,-4.1668,-4.1638,-4.1699,-4.1695,-4.17,-4.1735,-4.1694,-4.1727,-4.1695,-4.1725,-4.1707,-4.1763,-4.1769,-4.1763,-4.1758,-4.1767,-4.1768,-4.1776,-4.1768,-4.1744,-4.1743,-4.1742,-4.1742,0,-4.1686,-4.1668,-4.173,-4.1726,-4.1727,-4.1772,-4.1769,-4.1802,-4.1791,-4.1835,-4.1843,-4.1826,-4.1859,-4.1838,-4.1871,-4.1859,-4.1932,-4.1916,-4.1929,-4.1925,-4.1981,-4.1976,-4.2169,-4.2192,-4.2013,-4.2015,-4.2016,0,-4.1774,-4.1817,-4.1818,-4.1838,-4.1843,-4.1876,-4.1893,-4.1865,-4.1885,-4.1897,-4.1928,-4.1958,-4.198,-4.2034,-4.2024,-4.2049,-4.2033,-4.2099,-4.2037,-4.2044,-4.2034,-4.2031,-4.2035,-4.2111,-4.2114,-4.2115,-4.2117,0,-4.1933,-4.1922,-4.1948,-4.1972,-4.1994,-4.2011,-4.2025,-4.2044,-4.2015,-4.2039,-4.2072,-4.2089,-4.2123,-4.2152,-4.2173,-4.2174,-4.2141,-4.2136,-4.215,-4.216,-4.2166,-4.2163,-4.1963,-4.2132,-4.213,-4.2129,-4.2129,-4.2128,-4.2051,-4.2085,-4.2092,-4.2122,-4.213,-4.2143,-4.2174,-4.2166,-4.2194,-4.2219,-4.22,-4.224,-4.2246,-4.227,-4.2275,-4.2305,-4.2278,-4.2299,-4.2304,-4.2309,-4.2317,-4.2161,-4.2308,-4.2308,-4.2308,-4.2307,-4.2307,0,-4.2207,-4.2208,-4.2237,-4.2257,-4.2281,-4.2247,-4.2261,-4.2283,-4.2318,-4.2327,-4.2349,-4.2387,-4.2415,-4.2406,-4.2431,-4.2456,-4.2442,-4.2464,-4.2462,-4.2462,-4.234,-4.2325,-4.2475,-4.2475,-4.2475,-4.2475,-4.2475,-4.2475,-4.2291,-4.2348,-4.2337,-4.2397,-4.2397,-4.2435,-4.2446,-4.2458,-4.2464,-4.2508,-4.2531,-4.2526,-4.2527,-4.2551,-4.2575,-4.2572,-4.2583,-4.2611,-4.2602,-4.2488,-4.2471,-4.2455,-4.2441,-4.2614,-4.2614,-4.2722,-4.2723,-4.2724]}]]